• In Lithuania
  • List of Countries
  • For 7 days
  • Water Temperature
  • Satellite Maps
  • Weather Map
  • Weather Widgets
  • user-avatar
    Login

    Hourly Weather Mingachevir

    Today, 19 February, Monday

    Time Temperature Precipitation Wind Pressure Humidity
    00:00 +5°C° 0.6 mm 3 mps 752 mmHg 89%
    01:00 +5°C° 0.4 mm 3 mps 752 mmHg 88%
    02:00 +6°C° 0.4 mm 2 mps 753 mmHg 87%
    03:00 +5°C° 0 mm 2 mps 752 mmHg 85%
    04:00 +5°C° 0.5 mm 2 mps 752 mmHg 85%
    05:00 +5°C° 0.5 mm 2 mps 753 mmHg 85%
    06:00 +6°C° 0.5 mm 1 mps 753 mmHg 85%
    07:00 +5°C° 0.2 mm 2 mps 753 mmHg 83%
    08:00 +5°C° 0.2 mm 2 mps 753 mmHg 82%
    09:00 +6°C° 0.2 mm 2 mps 753 mmHg 80%
    10:00 +7°C° 0.1 mm 2 mps 753 mmHg 76%
    11:00 +8°C° 0.1 mm 2 mps 753 mmHg 73%
    12:00 +9°C° 0.1 mm 2 mps 753 mmHg 69%
    13:00 +9°C° 0 mm 2 mps 752 mmHg 68%
    14:00 +9°C° 0 mm 2 mps 752 mmHg 66%
    15:00 +10°C° 0 mm 2 mps 752 mmHg 65%
    16:00 +9°C° 0 mm 2 mps 752 mmHg 69%
    17:00 +9°C° 0 mm 2 mps 753 mmHg 73%
    18:00 +8°C° 0 mm 3 mps 753 mmHg 77%
    19:00 +8°C° 0 mm 3 mps 753 mmHg 80%
    20:00 +7°C° 0 mm 3 mps 753 mmHg 83%
    21:00 +7°C° 0 mm 3 mps 754 mmHg 86%
    22:00 +7°C° 0 mm 2 mps 754 mmHg 87%
    23:00 +6°C° 0 mm 2 mps 754 mmHg 88%

    Tomorrow, 20 February, Tuesday

    Time Temperature Precipitation Wind Pressure Humidity
    00:00 +6°C° 0 mm 2 mps 754 mmHg 88%
    01:00 +6°C° 0 mm 2 mps 754 mmHg 89%
    02:00 +6°C° 0 mm 2 mps 755 mmHg 89%
    03:00 +6°C° 0 mm 1 mps 755 mmHg 90%
    04:00 +6°C° 0 mm 1 mps 755 mmHg 90%
    05:00 +6°C° 0 mm 1 mps 755 mmHg 90%
    06:00 +6°C° 0 mm 1 mps 755 mmHg 90%
    07:00 +7°C° 0 mm 1 mps 755 mmHg 87%
    08:00 +7°C° 0 mm 1 mps 755 mmHg 84%
    09:00 +8°C° 0 mm 1 mps 755 mmHg 81%
    10:00 +8°C° 0 mm 2 mps 755 mmHg 79%
    11:00 +8°C° 0 mm 2 mps 754 mmHg 76%
    12:00 +9°C° 0 mm 2 mps 754 mmHg 73%
    13:00 +10°C° 0 mm 2 mps 754 mmHg 72%
    14:00 +10°C° 0 mm 2 mps 753 mmHg 70%
    15:00 +10°C° 0 mm 2 mps 753 mmHg 69%
    16:00 +10°C° 0 mm 2 mps 753 mmHg 72%
    17:00 +10°C° 0 mm 1 mps 754 mmHg 76%
    18:00 +10°C° 0 mm 1 mps 754 mmHg 79%
    19:00 +9°C° 0 mm 1 mps 754 mmHg 81%
    20:00 +8°C° 0 mm 2 mps 754 mmHg 84%
    21:00 +8°C° 0 mm 2 mps 755 mmHg 86%
    22:00 +8°C° 0 mm 2 mps 755 mmHg 87%
    23:00 +7°C° 0 mm 2 mps 755 mmHg 88%

    Day after tomorrow, 21 February, Wednesday

    Time Temperature Precipitation Wind Pressure Humidity
    00:00 +7°C° 0 mm 2 mps 755 mmHg 90%
    01:00 +7°C° 0 mm 2 mps 755 mmHg 90%
    02:00 +7°C° 0 mm 2 mps 755 mmHg 90%
    03:00 +8°C° 0 mm 1 mps 755 mmHg 91%
    04:00 +8°C° 0 mm 1 mps 755 mmHg 91%
    05:00 +8°C° 0 mm 1 mps 755 mmHg 92%
    06:00 +7°C° 0 mm 1 mps 755 mmHg 92%
    07:00 +8°C° 0 mm 1 mps 755 mmHg 90%
    08:00 +8°C° 0 mm 1 mps 755 mmHg 88%
    09:00 +8°C° 0 mm 2 mps 755 mmHg 86%
    10:00 +8°C° 0 mm 2 mps 755 mmHg 82%
    11:00 +9°C° 0 mm 2 mps 754 mmHg 78%
    12:00 +10°C° 0 mm 2 mps 754 mmHg 74%
    13:00 +10°C° 0 mm 2 mps 754 mmHg 71%
    14:00 +10°C° 0 mm 2 mps 753 mmHg 69%
    15:00 +10°C° 0 mm 2 mps 753 mmHg 67%
    16:00 +10°C° 0 mm 2 mps 753 mmHg 70%
    17:00 +10°C° 0 mm 2 mps 754 mmHg 74%
    18:00 +9°C° 0 mm 2 mps 754 mmHg 77%
    19:00 +9°C° 0 mm 2 mps 754 mmHg 80%
    20:00 +8°C° 0 mm 2 mps 755 mmHg 83%
    21:00 +8°C° 0 mm 2 mps 755 mmHg 86%
    22:00 +9°C° 0 mm 1 mps 755 mmHg 88%
    23:00 +8°C° 0 mm 1 mps 755 mmHg 90%

    22 February, Thursday

    Time Temperature Precipitation Wind Pressure Humidity
    00:00 +8°C° 0 mm 1 mps 755 mmHg 93%
    01:00 +8°C° 0 mm 1 mps 754 mmHg 93%
    02:00 +8°C° 0 mm 1 mps 754 mmHg 94%
    03:00 +7°C° 0 mm 0 mps 754 mmHg 95%
    04:00 +6°C° 0 mm 0 mps 754 mmHg 95%
    05:00 +6°C° 0 mm 0 mps 754 mmHg 94%
    06:00 +6°C° 0 mm 0 mps 754 mmHg 94%
    07:00 +7°C° 0 mm 0 mps 754 mmHg 91%
    08:00 +8°C° 0 mm 1 mps 754 mmHg 88%
    09:00 +9°C° 0 mm 1 mps 754 mmHg 84%
    10:00 +10°C° 0 mm 1 mps 753 mmHg 79%
    11:00 +11°C° 0 mm 1 mps 753 mmHg 73%
    12:00 +12°C° 0 mm 1 mps 752 mmHg 67%
    13:00 +12°C° 0 mm 1 mps 752 mmHg 64%
    14:00 +13°C° 0 mm 1 mps 751 mmHg 61%
    15:00 +13°C° 0 mm 1 mps 751 mmHg 57%
    16:00 +13°C° 0 mm 1 mps 751 mmHg 61%
    17:00 +12°C° 0 mm 1 mps 751 mmHg 64%
    18:00 +11°C° 0 mm 1 mps 752 mmHg 68%
    19:00 +11°C° 0 mm 1 mps 752 mmHg 70%
    20:00 +11°C° 0 mm 1 mps 752 mmHg 72%
    21:00 +9°C° 0 mm 2 mps 753 mmHg 75%
    22:00 +10°C° 0 mm 1 mps 753 mmHg 77%
    23:00 +9°C° 0 mm 1 mps 753 mmHg 79%

    23 February, Friday

    Time Temperature Precipitation Wind Pressure Humidity
    00:00 +9°C° 0 mm 1 mps 753 mmHg 81%
    01:00 +9°C° 0 mm 1 mps 753 mmHg 83%
    02:00 +8°C° 0 mm 1 mps 753 mmHg 84%
    03:00 +8°C° 0 mm 1 mps 752 mmHg 86%
    04:00 +8°C° 0 mm 1 mps 753 mmHg 87%
    05:00 +8°C° 0 mm 1 mps 753 mmHg 88%
    06:00 +7°C° 0 mm 1 mps 753 mmHg 89%
    07:00 +8°C° 0 mm 1 mps 753 mmHg 86%
    08:00 +9°C° 0 mm 1 mps 753 mmHg 83%
    09:00 +9°C° 0 mm 2 mps 753 mmHg 80%
    10:00 +10°C° 0 mm 2 mps 753 mmHg 76%
    11:00 +12°C° 0 mm 2 mps 752 mmHg 72%
    12:00 +12°C° 0 mm 2 mps 752 mmHg 69%
    13:00 +13°C° 0 mm 2 mps 752 mmHg 67%
    14:00 +13°C° 0 mm 2 mps 751 mmHg 65%
    15:00 +13°C° 0 mm 2 mps 751 mmHg 64%
    16:00 +12°C° 0 mm 2 mps 751 mmHg 67%
    17:00 +12°C° 0 mm 2 mps 752 mmHg 71%
    18:00 +10°C° 0 mm 2 mps 752 mmHg 74%
    19:00 +10°C° 0 mm 2 mps 752 mmHg 77%
    20:00 +9°C° 0 mm 2 mps 752 mmHg 81%
    21:00 +9°C° 0 mm 2 mps 753 mmHg 84%
    22:00 +9°C° 0 mm 2 mps 752 mmHg 86%
    23:00 +9°C° 0 mm 1 mps 752 mmHg 88%

    24 February, Saturday

    Time Temperature Precipitation Wind Pressure Humidity
    00:00 +9°C° 0 mm 1 mps 752 mmHg 91%
    01:00 +8°C° 0 mm 1 mps 752 mmHg 92%
    02:00 +7°C° 0 mm 0 mps 752 mmHg 93%
    03:00 +7°C° 0 mm 0 mps 752 mmHg 94%
    04:00 +7°C° 0 mm 0 mps 752 mmHg 94%
    05:00 +7°C° 0 mm 0 mps 752 mmHg 93%
    06:00 +7°C° 0 mm 1 mps 752 mmHg 92%
    07:00 +8°C° 0 mm 1 mps 752 mmHg 87%
    08:00 +9°C° 0 mm 1 mps 752 mmHg 82%
    09:00 +10°C° 0 mm 1 mps 752 mmHg 77%
    10:00 +11°C° 0 mm 1 mps 752 mmHg 72%
    11:00 +12°C° 0 mm 1 mps 751 mmHg 67%
    12:00 +13°C° 0 mm 1 mps 751 mmHg 61%
    13:00 +14°C° 0 mm 1 mps 751 mmHg 58%
    14:00 +14°C° 0 mm 1 mps 750 mmHg 56%
    15:00 +15°C° 0 mm 1 mps 750 mmHg 53%
    16:00 +14°C° 0 mm 2 mps 750 mmHg 56%
    17:00 +14°C° 0 mm 2 mps 751 mmHg 59%
    18:00 +13°C° 0 mm 2 mps 751 mmHg 63%
    19:00 +12°C° 0 mm 2 mps 751 mmHg 66%
    20:00 +12°C° 0 mm 2 mps 752 mmHg 69%
    21:00 +10°C° 0 mm 2 mps 752 mmHg 72%
    22:00 +10°C° 0 mm 2 mps 752 mmHg 75%
    23:00 +9°C° 0 mm 2 mps 752 mmHg 77%
    Show more